This is the latest recevied weather packets stored in our database for station/object NEWPRT. If no packets are shown the sender has not sent any weather packets the latest 10 day(s).
| Time | Temp. | Humidity | Pressure | Rain* | Wind** | Luminosity | Snow |
|---|---|---|---|---|---|---|---|
| 1778119856 | - | 70% | 1022.9 hPa | 0 mm | - | - | - |
| 1778119534 | - | 70% | 1023 hPa | 0 mm | - | - | - |
| 1778119211 | - | 69% | 1023 hPa | 0 mm | - | - | - |
| 1778118887 | - | 69% | 1022.9 hPa | 0 mm | - | - | - |
| 1778118564 | - | 68% | 1022.8 hPa | 0 mm | - | - | - |
| 1778118241 | - | 70% | 1023.1 hPa | 0 mm | - | - | - |
| 1778117918 | - | 67% | 1022.9 hPa | 0 mm | - | - | - |
| 1778117595 | - | 70% | 1023.1 hPa | 0 mm | - | - | - |
| 1778117272 | - | 71% | 1023.2 hPa | 0 mm | - | - | - |
| 1778116949 | - | 71% | 1023.3 hPa | 0 mm | - | - | - |
| 1778116626 | - | 70% | 1023.3 hPa | 0 mm | - | - | - |
| 1778116303 | - | 70% | 1023.2 hPa | 0 mm | - | - | - |
| 1778115980 | - | 70% | 1023.2 hPa | 0 mm | - | - | - |
| 1778115658 | - | 71% | 1023.3 hPa | 0 mm | - | - | - |
| 1778115335 | - | 70% | 1023.3 hPa | 0 mm | - | - | - |
| 1778115013 | - | 71% | 1023.2 hPa | 0 mm | - | - | - |
| 1778114688 | - | 72% | 1023.2 hPa | 0 mm | - | - | - |
| 1778114365 | - | 74% | 1023.2 hPa | 0 mm | - | - | - |
| 1778114042 | - | 74% | 1023.3 hPa | 0 mm | - | - | - |
| 1778113721 | - | 75% | 1023.2 hPa | 0 mm | - | - | - |
| 1778113396 | - | 68% | 1023.2 hPa | 0 mm | - | - | - |
| 1778113073 | - | 69% | 1023.2 hPa | 0 mm | - | - | - |
| 1778112750 | - | 69% | 1023.3 hPa | 0 mm | - | - | - |
| 1778112427 | - | 70% | 1023.2 hPa | 0 mm | - | - | - |
| 1778112104 | - | 73% | 1023.3 hPa | 0 mm | - | - | - |
* Rain latest hour (hover to see other rain measurements)
** Current wind speed in m/s (hover to see current wind gust speed)